Dewpoint
40 40 38 36 36 37 36 33 33 35 36 36 36 36 37 39 38 38 38 37 36 34 34 33 33 34 37 42 43 43 42 41 40 41 42 42 42 42 42 42 42 42 42 42 42 42 42 42 42 42 41 41 41 40 40 40 40 41 41 41 41 41 41 42 42 42 42 42 42 42 42 42 43 43 44 44 44 44 45 46 46 48 49 50 51 51
39 38 38 36 36 37 37 33 32 33 36 35 36 37 37 37 37 37 37 37 36 35 34 33 33 33 33 38 42 43 42 41 40 40 41 41 42 42 42 42 42 41 41 42 42 42 42 42 42 42 41 41 40 40 40 40 40 40 40 40 40 40 41 41 41 41 41 42 42 42 41 42 42 42 43 43 44 44 44 45 46 46 48 48 49 49
41 40 39 37 37 37 37 34 32 32 33 34 35 36 34 35 37 38 38 38 37 36 34 33 33 33 33 36 41 43 43 41 40 40 40 41 41 41 42 42 41 41 41 42 42 42 42 41 41 41 41 40 40 40 39 39 40 40 40 40 40 40 40 40 40 40 40 41 41 41 41 41 42 42 42 43 43 43 44 44 45 46 46 47 48 48
42 42 41 39 37 37 37 35 33 33 33 34 34 33 32 34 37 38 38 38 37 36 33 32 32 32 33 34 38 42 43 42 41 40 40 40 41 41 41 41 41 41 41 41 42 42 41 41 41 40 40 40 39 39 39 39 39 39 39 39 39 39 39 39 39 39 40 40 40 40 41 41 41 41 42 42 42 43 43 44 44 45 46 46 46 47
43 43 42 41 40 38 38 36 34 34 35 34 33 32 32 34 36 37 38 37 37 36 34 32 31 31 33 33 36 40 42 42 41 40 40 40 40 40 41 41 41 41 41 41 42 42 41 41 40 40 40 39 39 39 38 38 38 39 39 39 39 38 38 38 38 38 39 39 39 40 40 40 41 41 41 42 42 42 43 43 44 44 45 45 46 46
43 43 42 41 41 40 39 37 36 36 35 34 33 32 32 34 35 36 37 37 37 36 35 33 32 31 31 32 36 39 42 42 42 41 40 40 40 40 40 40 40 40 40 41 41 41 41 41 40 40 39 39 39 38 38 38 38 38 38 38 38 38 38 38 38 38 38 38 39 39 39 40 40 40 41 41 42 42 42 42 43 43 44 44 44 45
42 42 40 39 39 39 38 38 37 36 36 36 34 33 33 33 33 34 34 34 34 35 35 34 33 30 29 31 34 38 39 40 41 41 41 41 41 40 40 40 40 39 39 40 40 40 41 41 40 40 39 39 38 38 38 38 38 38 38 38 38 38 38 38 38 38 38 38 38 38 39 39 39 40 40 40 41 41 42 42 42 42 43 43 43 44
42 42 39 38 38 39 39 38 37 36 36 35 35 34 33 32 32 31 32 32 32 32 33 33 33 30 28 28 31 33 34 36 37 37 38 40 41 41 40 41 40 40 40 40 40 40 41 41 40 40 39 38 38 38 38 38 38 38 38 38 38 38 38 38 38 37 37 38 38 38 38 38 39 39 39 39 40 40 41 41 42 42 42 42 42 43
42 42 40 39 39 40 40 38 37 34 33 33 33 33 33 32 31 30 31 30 30 31 31 32 32 31 29 28 28 30 33 35 34 34 35 37 37 37 40 42 42 42 41 41 40 40 40 41 40 39 39 38 38 38 38 38 37 37 37 38 38 38 38 38 37 37 37 37 37 38 38 38 38 38 39 39 39 39 40 40 41 41 41 42 42 42
41 41 41 39 39 39 39 38 36 33 32 31 31 31 31 31 30 30 30 30 30 30 30 30 31 31 30 28 28 30 33 35 36 37 37 37 36 37 41 42 42 42 41 41 41 41 40 40 40 39 39 38 38 38 38 38 37 37 37 37 37 37 37 37 37 37 37 37 37 37 37 37 38 38 38 38 38 39 39 39 40 40 41 41 41 41
39 39 40 39 38 37 36 37 36 34 31 31 30 30 30 30 30 30 30 30 29 29 29 29 29 29 30 29 29 30 32 31 32 33 34 34 35 37 38 39 39 40 39 40 40 40 40 40 39 39 39 38 38 38 38 38 38 37 37 37 37 37 37 37 37 37 37 37 37 37 37 37 37 37 37 38 38 38 38 38 39 39 40 40 40 41
40 40 40 40 38 37 36 36 36 34 32 31 31 30 28 28 28 28 30 29 28 28 29 29 28 28 28 29 29 30 30 29 29 29 28 29 31 32 33 33 34 36 36 37 38 39 40 40 40 39 39 39 39 38 38 38 38 37 37 37 37 37 37 37 37 37 37 37 37 37 37 37 37 37 37 37 37 37 38 38 38 38 39 39 39 40
39 40 40 40 39 37 35 34 33 33 31 30 29 29 29 28 28 27 28 28 28 28 29 29 29 28 28 28 28 29 29 28 28 28 28 27 28 28 29 30 31 32 32 32 33 34 38 40 40 39 40 40 39 39 38 38 38 37 37 37 37 37 37 37 36 36 36 36 36 37 37 37 37 37 37 37 37 37 37 37 38 38 38 38 39 39
37 37 38 38 37 34 31 30 29 28 28 28 29 29 30 29 28 27 27 28 28 28 28 28 28 27 28 28 28 28 28 28 28 28 27 27 26 27 28 29 30 30 29 30 30 31 36 37 37 37 39 40 40 39 39 39 38 37 37 37 37 37 36 36 36 36 36 36 36 36 36 36 36 37 37 37 37 37 37 37 37 37 37 38 38 38
37 37 37 37 35 33 30 29 28 28 28 29 29 30 31 29 28 27 27 28 27 27 26 26 25 25 26 28 28 27 27 27 27 27 26 26 26 25 25 28 29 29 29 29 29 31 34 34 33 32 34 36 37 38 40 40 39 37 37 37 37 36 36 36 36 36 36 36 36 36 36 36 36 36 36 37 37 37 37 37 37 37 37 37 38 38
36 37 37 36 34 33 30 30 30 30 30 29 28 28 28 28 27 26 26 27 26 26 25 25 24 23 24 27 28 28 27 27 27 27 26 26 26 25 24 27 28 29 28 29 29 29 30 29 29 30 31 34 37 39 40 39 38 37 37 37 37 36 36 36 35 36 36 36 36 36 36 36 36 36 36 36 37 37 37 37 37 37 37 37 37 37
35 36 35 35 34 33 32 32 32 32 31 30 28 27 27 27 26 26 26 26 25 25 25 24 24 22 22 24 25 26 27 27 27 26 26 26 26 25 24 27 28 29 28 29 29 28 28 28 29 30 31 35 37 38 38 38 37 37 36 36 36 36 36 35 35 35 36 36 36 36 36 36 36 36 36 36 36 36 37 37 37 37 37 37 37 37
34 35 34 34 33 33 32 33 33 33 31 31 30 29 27 26 26 26 26 26 26 25 24 24 24 23 23 21 22 23 25 26 27 27 26 26 26 25 23 25 27 28 27 28 28 28 27 27 27 28 31 35 36 36 36 36 36 35 35 35 36 36 36 35 35 35 36 36 36 36 36 36 36 36 36 36 36 36 36 36 37 37 37 37 37 37
34 34 34 33 33 32 33 33 33 33 32 32 31 30 30 29 28 26 26 26 26 26 25 24 24 24 24 23 23 24 23 25 26 27 26 26 26 25 23 25 27 27 26 26 26 27 27 26 28 31 33 33 33 34 34 34 34 34 34 35 35 35 35 35 35 35 35 36 36 36 36 36 36 36 36 36 36 36 36 36 36 37 37 37 36 37
35 35 34 33 32 33 33 33 33 33 33 32 30 29 29 29 28 27 28 27 26 25 24 24 24 24 24 24 25 25 23 24 25 26 25 25 25 25 23 24 25 24 24 24 24 24 25 25 26 28 30 31 32 33 33 33 34 34 34 34 34 35 35 34 35 35 35 36 36 36 35 35 35 36 36 36 36 36 36 36 36 36 36 36 36 36
35 35 35 33 33 33 33 33 33 33 34 32 29 27 28 27 26 26 27 26 25 24 23 24 24 25 25 26 27 26 23 24 26 26 24 24 24 25 24 23 23 23 23 23 24 24 25 25 25 25 28 30 31 32 33 33 33 34 34 34 34 34 34 34 34 35 35 35 35 35 35 35 35 35 36 36 36 36 36 36 36 36 36 36 36 36
35 35 33 32 33 33 33 32 32 33 34 31 28 28 27 26 25 25 25 24 24 25 26 26 26 27 26 27 28 26 23 24 25 25 24 24 24 24 24 23 23 23 23 23 24 24 24 24 25 26 28 30 31 32 33 33 34 34 34 34 34 34 34 34 34 35 35 35 35 35 35 35 35 35 36 36 36 36 36 36 36 36 36 36 36 36
33 33 31 30 30 31 32 31 31 32 32 30 29 29 28 26 26 25 25 24 25 25 26 26 26 26 25 26 26 25 24 24 24 24 24 24 24 24 23 23 23 24 24 24 24 24 24 24 24 25 28 30 31 32 33 34 34 34 33 33 33 33 33 34 34 34 34 34 34 34 34 35 35 35 35 36 36 36 36 36 36 36 36 36 36 36
30 30 29 28 28 29 30 30 30 30 30 29 29 28 27 26 26 26 25 25 24 24 23 23 23 24 24 25 25 25 25 24 23 23 24 24 24 24 23 22 23 24 24 24 24 24 24 24 24 25 26 28 31 33 34 35 34 34 33 33 33 33 33 33 34 34 34 34 34 34 34 34 35 35 35 35 36 36 36 36 36 36 36 36 36 36
30 30 30 30 31 32 32 31 31 32 31 29 28 28 28 28 29 29 26 24 24 23 21 21 21 21 21 24 25 25 25 23 22 23 24 23 22 22 22 22 23 24 24 24 24 24 24 24 24 24 25 27 30 33 34 34 34 33 32 32 33 33 33 33 33 33 33 33 34 34 34 34 34 35 35 35 35 35 35 35 35 36 36 36 36 36
34 33 33 33 33 33 33 33 34 35 33 32 30 28 27 27 26 25 24 24 23 22 21 20 19 19 19 20 22 23 24 23 23 23 23 23 23 23 22 21 21 22 24 24 24 24 24 24 24 24 24 25 28 32 33 33 33 32 32 32 32 33 33 33 34 33 33 33 33 34 34 34 34 34 34 35 35 35 35 35 35 35 35 36 36 36
34 34 34 33 33 33 33 33 33 33 34 34 32 30 27 24 23 23 23 23 22 21 21 19 18 18 19 19 20 22 23 24 24 22 21 22 22 22 23 21 21 21 23 24 24 25 26 26 25 25 25 23 25 29 32 32 32 31 31 32 32 33 33 33 33 33 33 33 33 33 33 33 34 34 34 34 34 35 34 34 34 35 35 36 36 35
35 35 35 34 34 34 33 33 33 33 34 33 33 32 29 25 23 22 22 21 20 19 20 19 19 18 19 19 19 20 21 24 25 24 22 21 22 22 22 21 20 20 22 24 24 26 27 26 25 24 22 23 24 27 30 31 31 31 31 31 32 32 33 33 33 33 33 33 33 33 33 33 33 33 34 34 34 34 34 34 34 35 35 35 33 33
34 34 34 34 34 34 34 34 34 33 33 33 33 32 29 26 24 23 22 20 20 20 20 20 20 19 19 18 18 19 21 24 25 24 23 22 22 21 21 20 19 19 22 23 24 24 23 23 21 19 19 24 26 27 27 28 29 29 30 31 31 32 32 33 33 33 32 32 32 32 32 33 33 33 33 34 34 34 34 34 34 34 34 33 31 30
28 29 29 30 30 30 31 31 32 33 34 33 33 32 30 26 24 23 22 20 20 20 20 20 19 19 18 17 17 18 20 24 25 25 22 22 22 21 20 19 19 18 20 22 23 22 20 22 21 20 21 24 26 25 24 26 26 27 27 28 29 31 32 32 32 31 31 31 31 31 32 32 33 33 33 33 34 34 34 34 34 33 33 31 28 28
24 25 25 24 24 25 26 27 28 30 32 33 33 32 29 25 23 22 21 20 20 20 20 19 19 19 18 17 17 17 19 22 25 27 21 22 21 20 19 19 18 17 18 20 21 21 21 22 22 23 23 24 24 24 24 25 25 25 25 25 27 28 31 31 30 30 30 30 30 31 31 32 32 33 33 33 33 34 34 34 33 33 32 29 28 27
24 24 24 24 24 24 26 25 25 25 26 27 28 28 28 27 25 23 21 21 20 20 19 19 19 18 18 18 18 18 20 19 24 27 23 22 20 19 17 17 19 19 19 20 21 21 20 21 22 22 22 23 23 24 24 25 25 24 24 24 24 26 29 29 29 29 29 29 30 30 31 31 32 32 33 33 33 33 33 34 33 33 32 29 28 28
24 24 23 24 24 25 27 25 24 25 26 24 24 24 25 26 26 26 23 21 21 21 20 19 19 18 17 18 18 18 19 19 23 27 26 23 21 20 18 19 21 21 20 20 20 21 21 21 21 21 22 22 23 23 24 25 25 25 24 23 23 24 26 28 28 28 28 28 29 30 30 31 31 32 32 32 33 33 33 34 34 33 32 30 29 29
24 24 24 24 24 24 26 24 24 25 26 25 25 25 24 24 24 25 24 23 22 22 21 21 20 20 19 19 19 19 19 20 24 28 28 24 24 23 21 22 22 22 20 21 21 21 21 21 21 21 21 22 22 23 24 24 24 24 21 21 22 23 24 25 26 26 26 27 27 27 28 28 29 31 31 32 32 33 33 33 34 34 33 32 31 30
24 25 24 23 23 23 26 26 26 25 25 25 25 25 25 24 23 23 23 23 23 22 21 22 22 22 23 23 23 22 21 21 24 28 29 27 26 26 24 24 24 23 22 23 22 22 21 21 21 21 21 21 21 22 23 21 21 21 20 22 22 23 24 24 24 24 25 25 25 25 26 26 27 28 29 31 31 32 33 33 33 33 33 33 33 31
24 24 24 22 23 24 26 27 27 26 25 24 24 23 23 22 22 21 21 21 22 24 24 23 23 23 23 24 24 24 24 23 24 27 29 28 27 26 25 24 24 24 24 23 23 22 21 21 22 22 22 21 20 20 21 21 20 21 21 23 24 24 24 24 24 24 24 24 25 25 25 26 27 28 28 30 31 32 32 32 33 33 33 33 33 33
23 23 23 22 23 24 27 27 27 26 25 23 22 21 22 20 20 20 19 19 19 21 23 24 24 24 25 26 26 26 26 25 25 25 27 26 26 26 25 25 25 25 25 24 24 23 22 22 21 21 21 20 20 20 21 21 21 22 22 23 23 23 23 24 25 24 24 24 25 25 26 27 27 28 29 30 30 30 31 31 32 32 32 32 33 33
24 24 24 24 24 24 25 26 26 26 25 23 22 21 21 19 19 19 19 18 17 18 19 20 21 23 26 27 28 28 27 25 23 23 24 23 23 24 25 25 25 26 26 25 24 24 23 22 21 20 19 19 20 21 21 22 22 22 22 23 23 23 23 23 23 23 23 24 25 26 27 27 27 27 27 28 27 27 28 28 29 30 31 31 32 32
24 24 24 25 25 25 25 25 25 24 24 23 22 21 19 20 20 20 19 18 17 17 17 19 20 22 23 24 26 28 28 25 23 22 21 19 19 20 23 24 24 25 25 25 25 25 24 23 22 21 20 20 20 21 21 21 21 21 22 23 23 22 22 22 22 23 24 24 25 26 26 26 25 25 25 25 25 25 26 26 28 28 29 28 29 30
24 25 25 27 28 28 27 27 26 24 23 24 24 23 22 23 22 21 20 20 22 23 24 23 24 24 25 26 26 25 24 23 22 22 20 19 18 19 22 23 24 24 24 25 25 25 25 24 23 22 22 21 21 21 21 21 22 22 23 22 22 22 23 23 23 23 23 23 23 24 24 24 24 24 25 25 25 25 26 26 26 27 28 27 26 26
24 25 26 28 28 29 29 29 27 25 25 23 22 21 23 23 23 23 23 24 25 25 24 25 25 24 23 20 19 18 19 19 20 21 19 18 17 17 20 21 23 24 24 24 24 25 25 24 24 23 23 22 22 22 22 22 23 23 24 22 22 22 23 24 24 23 22 21 20 21 24 24 25 26 26 26 26 26 26 26 26 27 28 26 24 24
27 26 26 27 27 28 28 27 27 27 26 25 25 25 25 24 24 24 24 24 24 24 23 22 22 22 22 22 20 18 16 18 19 20 19 17 16 16 17 19 20 21 22 23 24 24 24 24 24 24 23 23 23 22 22 22 23 23 23 23 23 23 23 23 21 19 19 19 19 20 24 25 25 25 25 25 25 26 27 27 27 28 28 26 25 24
27 26 25 25 25 26 28 28 29 29 28 27 26 26 26 26 26 26 26 24 23 22 22 21 21 21 21 20 19 18 17 15 16 18 19 16 15 15 16 17 18 19 21 21 22 22 23 24 24 23 23 24 23 23 22 22 22 23 23 23 23 23 22 22 21 20 21 22 23 23 24 24 24 25 25 26 26 26 27 27 28 29 28 28 26 25
26 25 24 24 25 26 27 27 28 28 28 27 27 27 27 27 27 27 24 23 22 22 21 21 21 21 20 20 19 19 19 17 15 16 19 20 19 16 16 16 17 18 19 20 20 21 21 22 23 23 23 24 24 24 23 22 22 22 22 23 23 23 22 22 23 23 24 24 24 23 24 24 24 25 25 25 25 25 25 25 25 25 27 27 27 26
25 25 24 24 25 26 25 26 27 27 27 27 27 26 26 25 25 24 23 22 22 21 21 21 20 20 19 19 19 20 20 20 20 19 19 23 26 26 21 19 18 19 19 20 21 21 22 22 22 23 24 24 24 24 23 23 22 22 23 23 24 24 24 24 24 24 24 24 24 24 23 23 24 25 24 24 24 24 24 24 24 24 25 26 26 26
22 21 21 22 23 24 24 25 24 24 24 23 24 24 24 24 23 23 23 22 22 21 21 21 20 19 19 19 20 20 21 21 22 22 22 22 21 20 20 21 21 21 21 21 21 22 22 23 23 24 24 24 24 23 23 23 23 22 22 23 23 23 24 24 24 24 24 24 24 24 23 23 24 25 25 25 25 25 24 23 24 24 25 25 25 26
18 17 17 19 20 21 22 23 22 21 21 21 21 22 22 22 22 22 22 22 21 21 21 21 20 20 20 20 21 21 21 20 20 20 20 20 19 18 18 19 20 21 21 21 22 22 23 23 24 24 24 24 23 22 22 22 23 23 23 23 23 23 23 23 23 24 24 24 24 24 23 24 24 25 25 25 25 25 24 24 24 25 25 25 25 25
18 17 16 17 17 18 19 19 19 19 19 19 20 20 20 21 21 21 20 20 20 20 20 20 20 20 21 22 21 21 20 19 18 18 18 18 18 18 18 18 19 20 21 22 23 23 24 24 24 24 24 24 23 22 22 22 23 23 23 23 23 23 23 24 24 24 24 24 23 23 24 25 26 26 26 26 26 25 25 25 25 25 25 25 25 25
15 15 15 15 15 14 15 15 15 16 18 18 18 19 19 20 20 20 19 19 19 19 19 20 21 21 21 19 19 18 17 17 17 17 17 17 17 18 18 18 18 19 20 20 21 22 23 24 24 25 25 25 24 23 23 23 23 23 23 24 24 24 24 24 24 24 25 24 23 22 24 25 27 27 27 26 26 25 25 25 24 24 24 24 24 24
14 14 15 14 13 12 12 14 15 15 16 16 17 17 18 18 19 19 19 19 20 20 21 21 20 19 17 16 15 15 16 16 16 17 17 17 17 17 17 18 18 19 19 19 19 19 20 21 23 25 27 27 26 25 24 24 24 24 24 24 24 24 24 24 24 24 25 25 24 24 25 27 28 28 28 27 26 25 24 24 23 23 22 22 23 24
14 13 12 12 12 13 12 13 14 15 16 17 18 19 19 19 19 19 19 20 21 22 21 19 18 17 16 16 16 16 16 16 16 16 17 17 17 18 19 19 19 18 18 17 17 17 17 17 18 19 22 26 27 27 25 24 23 23 23 24 24 24 24 24 24 24 25 26 26 27 28 28 28 28 27 26 25 24 23 22 22 21 21 21 22 23